DLH274 EDDS-EDDN

Flight info

Callsign DLH274
Flight time 0h 21m
Altitude 17000
Route DKB4H/07 DKB N869 LETKU LETKU1T
Aircraft A320/M-SDE3FGHIRWY/LB1

Departure

Time 2026-05-01 14:49
Airport Stuttgart Airport (EDDS)

Arrival

Time 2026-05-01 15:11
Airport Nuremberg Airport (EDDN)
Time Latitude Longitude Altitude Speed Heading
2026-05-01 14:37 48.69125 9.20326 1285 ft 0 kts 345°
2026-05-01 14:40 48.69121 9.20328 1285 ft 4 kts 344°
2026-05-01 14:41 48.69095 9.20341 1291 ft 4 kts 337°
2026-05-01 14:41 48.69072 9.20359 1287 ft 4 kts 322°
2026-05-01 14:41 48.69055 9.20387 1289 ft 4 kts 278°
2026-05-01 14:41 48.69055 9.20405 1290 ft 1 kts 254°
2026-05-01 14:42 48.69056 9.20407 1290 ft 0 kts 254°
2026-05-01 14:46 48.69055 9.20402 1290 ft 5 kts 253°
2026-05-01 14:46 48.69019 9.20220 1286 ft 16 kts 253°
2026-05-01 14:46 48.68987 9.20059 1289 ft 17 kts 250°
2026-05-01 14:47 48.68947 9.19952 1286 ft 12 kts 237°
2026-05-01 14:47 48.68870 9.19874 1288 ft 10 kts 171°
2026-05-01 14:47 48.68789 9.19936 1290 ft 16 kts 158°
2026-05-01 14:48 48.68608 9.20068 1288 ft 16 kts 114°
2026-05-01 14:48 48.68617 9.20245 1289 ft 18 kts 76°
2026-05-01 14:48 48.68779 9.21108 1288 ft 99 kts 74°
2026-05-01 14:49 48.69272 9.24064 1851 ft 166 kts 72°
2026-05-01 14:49 48.69820 9.27450 3341 ft 165 kts 74°
2026-05-01 14:50 48.70188 9.29766 4207 ft 179 kts 74°
2026-05-01 14:50 48.71211 9.35627 5346 ft 259 kts 73°
2026-05-01 14:51 48.71680 9.38303 5505 ft 266 kts 74°
2026-05-01 14:51 48.72698 9.44432 5947 ft 331 kts 75°
2026-05-01 14:52 48.73792 9.51582 6407 ft 338 kts 76°
2026-05-01 14:52 48.74486 9.54824 6521 ft 316 kts 62°
2026-05-01 14:52 48.77536 9.59065 6519 ft 284 kts 40°
2026-05-01 14:53 48.79102 9.60880 6591 ft 286 kts 38°
2026-05-01 14:53 48.80699 9.62732 7461 ft 287 kts 39°
2026-05-01 14:53 48.82284 9.64576 8410 ft 288 kts 41°
2026-05-01 14:53 48.83742 9.66664 9346 ft 287 kts 51°
2026-05-01 14:54 48.85048 9.68960 10274 ft 288 kts 53°
2026-05-01 14:54 48.86307 9.71374 10743 ft 306 kts 56°
2026-05-01 14:54 48.87679 9.74069 11011 ft 330 kts 56°
2026-05-01 14:54 48.89109 9.76857 11440 ft 345 kts 54°
2026-05-01 14:55 48.90612 9.79730 12194 ft 348 kts 52°
2026-05-01 14:55 48.92148 9.82617 12958 ft 353 kts 52°
2026-05-01 14:55 48.93709 9.85516 13740 ft 355 kts 52°
2026-05-01 14:55 48.95287 9.88428 14493 ft 358 kts 52°
2026-05-01 14:56 48.96881 9.91366 15154 ft 362 kts 51°
2026-05-01 14:56 48.98485 9.94333 15864 ft 364 kts 52°
2026-05-01 14:56 48.99554 9.96318 16285 ft 367 kts 52°
2026-05-01 14:56 49.01181 9.99341 16937 ft 370 kts 52°
2026-05-01 14:57 49.02818 10.02386 17252 ft 372 kts 52°
2026-05-01 14:57 49.06102 10.08489 17330 ft 372 kts 52°
2026-05-01 14:57 49.07738 10.11547 17340 ft 373 kts 52°
2026-05-01 14:58 49.09372 10.14609 17340 ft 372 kts 52°
2026-05-01 14:58 49.11003 10.17677 17345 ft 373 kts 52°
2026-05-01 14:58 49.12634 10.20750 17353 ft 373 kts 52°
2026-05-01 14:58 49.14272 10.23795 17349 ft 371 kts 49°
2026-05-01 14:59 49.16073 10.26621 17353 ft 371 kts 47°
2026-05-01 14:59 49.17895 10.29428 17355 ft 371 kts 47°
2026-05-01 14:59 49.19706 10.32230 17369 ft 371 kts 47°
2026-05-01 14:59 49.21518 10.35044 17370 ft 371 kts 47°
2026-05-01 15:00 49.25048 10.40500 17194 ft 348 kts 47°
2026-05-01 15:00 49.26741 10.43066 16936 ft 340 kts 44°
2026-05-01 15:00 49.28644 10.45262 15984 ft 354 kts 37°
2026-05-01 15:01 49.30705 10.47424 15281 ft 361 kts 36°
2026-05-01 15:01 49.32775 10.49581 14771 ft 360 kts 35°
2026-05-01 15:01 49.35048 10.51176 14319 ft 361 kts 17°
2026-05-01 15:01 49.37494 10.52038 13804 ft 360 kts 14°
2026-05-01 15:02 49.39944 10.52840 13256 ft 358 kts 14°
2026-05-01 15:02 49.41553 10.53365 12908 ft 357 kts 14°
2026-05-01 15:02 49.44790 10.54408 12210 ft 353 kts 14°
2026-05-01 15:02 49.47190 10.55193 11676 ft 351 kts 15°
2026-05-01 15:03 49.49575 10.55974 11151 ft 350 kts 14°
2026-05-01 15:03 49.51967 10.56762 10459 ft 353 kts 14°
2026-05-01 15:03 49.54378 10.57578 9697 ft 356 kts 15°
2026-05-01 15:03 49.56804 10.58394 8924 ft 358 kts 14°
2026-05-01 15:04 49.59242 10.59227 8168 ft 359 kts 15°
2026-05-01 15:04 49.61521 10.60699 7425 ft 355 kts 36°
2026-05-01 15:04 49.63271 10.63307 6699 ft 349 kts 57°
2026-05-01 15:04 49.64251 10.66678 5933 ft 343 kts 79°
2026-05-01 15:05 49.64299 10.70233 5468 ft 330 kts 102°
2026-05-01 15:05 49.63441 10.73387 5328 ft 312 kts 126°
2026-05-01 15:05 49.61904 10.75553 5270 ft 293 kts 150°
2026-05-01 15:05 49.60015 10.76419 5147 ft 280 kts 176°
2026-05-01 15:06 49.58119 10.75994 4985 ft 271 kts 192°
2026-05-01 15:06 49.56349 10.75187 4862 ft 260 kts 194°
2026-05-01 15:06 49.54644 10.74671 4730 ft 241 kts 173°
2026-05-01 15:06 49.53121 10.75421 4597 ft 225 kts 140°
2026-05-01 15:07 49.52322 10.77338 4476 ft 213 kts 98°
2026-05-01 15:07 49.52451 10.79553 4336 ft 206 kts 82°
2026-05-01 15:07 49.52438 10.81693 4109 ft 200 kts 99°
2026-05-01 15:07 49.52211 10.83797 3858 ft 200 kts 100°
2026-05-01 15:08 49.51996 10.85924 3600 ft 201 kts 100°
2026-05-01 15:08 49.51793 10.88013 3331 ft 194 kts 99°
2026-05-01 15:08 49.51601 10.89998 3096 ft 187 kts 100°
2026-05-01 15:08 49.51412 10.91956 2854 ft 181 kts 99°
2026-05-01 15:09 49.51230 10.93833 2611 ft 174 kts 99°
2026-05-01 15:09 49.51055 10.95639 2384 ft 169 kts 99°
2026-05-01 15:09 49.50884 10.97407 2151 ft 164 kts 100°
2026-05-01 15:09 49.50720 10.99092 1946 ft 153 kts 98°
2026-05-01 15:10 49.50566 11.00671 1725 ft 146 kts 99°
2026-05-01 15:10 49.50269 11.03719 1343 ft 141 kts 101°
2026-05-01 15:10 49.50121 11.05229 1169 ft 142 kts 101°
2026-05-01 15:11 49.49986 11.06669 1042 ft 126 kts 102°
2026-05-01 15:11 49.49787 11.08639 1039 ft 46 kts 98°
2026-05-01 15:11 49.49738 11.09109 1045 ft 46 kts 98°
2026-05-01 15:12 49.49697 11.09499 1051 ft 23 kts 101°
2026-05-01 15:12 49.49567 11.09443 1048 ft 14 kts 228°
2026-05-01 15:12 49.49537 11.09368 1046 ft 1 kts 249°
2026-05-01 15:13 49.49535 11.09362 1046 ft 0 kts 248°
2026-05-01 15:14 49.49539 11.09192 1042 ft 21 kts 278°
2026-05-01 15:14 49.49567 11.08949 1039 ft 25 kts 279°
2026-05-01 15:14 49.49596 11.08599 1036 ft 3 kts 274°
2026-05-01 15:15 49.49603 11.08378 1033 ft 12 kts 234°
2026-05-01 15:15 49.49525 11.08259 1028 ft 8 kts 279°
2026-05-01 15:16 49.49567 11.07962 1027 ft 4 kts 279°
2026-05-01 15:16 49.49588 11.07740 1023 ft 8 kts 278°
2026-05-01 15:17 49.49536 11.07662 1026 ft 6 kts 189°
2026-05-01 15:18 49.49531 11.07661 1026 ft 0 kts 189°